GW2542 Weather Reports


time (UTC)temp
C
wind
direction
speed
KPH
gust
KPH
rain 1hr
cm
rain 24hr
cm
rain mn
cm
humidity
%
barometer
mb
20260906221540 30 284 1.6 16.1 0.00 0.00 0.00 22 1018.8
20260906221018 30 267 8.0 16.1 0.00 0.00 0.00 21 1018.8
20260906220521 30 294 4.8 14.5 0.00 0.00 0.00 21 1018.9
20260906220039 30 207 3.2 12.9 0.00 0.00 0.00 22 1019.0
20260906215521 30 178 8.0 12.9 0.00 0.00 0.00 21 1019.1
20260906215021 30 352 4.8 12.9 0.00 0.00 0.00 21 1019.1
20260906214544 30 13 1.6 6.4 0.00 0.00 0.00 20 1019.1
20260906214018 30 316 1.6 8.0 0.00 0.00 0.00 21 1019.2
20260906213519 30 136 3.2 11.3 0.00 0.00 0.00 21 1019.2
20260906213036 29 77 3.2 11.3 0.00 0.00 0.00 22 1019.3
20260906212517 29 115 1.6 6.4 0.00 0.00 0.00 22 1019.4
20260906212019 29 103 3.2 6.4 0.00 0.00 0.00 22 1019.4
20260906211538 28 102 1.6 6.4 0.00 0.00 0.00 24 1019.6
20260906211019 28 78 0.0 14.5 0.00 0.00 0.00 22 1019.7
20260906210521 29 140 6.4 20.9 0.00 0.00 0.00 22 1019.8
20260906205533 30 114 8.0 16.1 0.00 0.00 0.00 20 1020.0
20260906205017 31 105 0.0 14.5 0.00 0.00 0.00 19 1020.1
20260906204016 31 156 6.4 14.5 0.00 0.00 0.00 20 1020.3
20260906203518 30 209 4.8 16.1 0.00 0.00 0.00 21 1020.3
20260906202519 30 0 3.2 24.1 0.00 0.00 0.00 20 1020.4
20260906202021 30 90 11.3 24.1 0.00 0.00 0.00 20 1020.5
20260906201020 30 181 8.0 16.1 0.00 0.00 0.00 20 1020.5
20260906200519 30 103 8.0 16.1 0.00 0.00 0.00 20 1020.5
20260906195521 30 111 1.6 12.9 0.00 0.00 0.00 19 1020.7
20260906195019 30 229 1.6 12.9 0.00 0.00 0.00 21 1020.9
20260906194541 30 196 4.8 12.9 0.00 0.00 0.00 22 1020.9
20260906194019 30 239 4.8 12.9 0.00 0.00 0.00 20 1020.9
20260906193521 30 206 6.4 16.1 0.00 0.00 0.00 23 1020.9
20260906192521 30 260 4.8 11.3 0.00 0.00 0.00 22 1021.1
20260906192019 30 165 1.6 11.3 0.00 0.00 0.00 21 1021.0
20260906191020 30 311 3.2 12.9 0.00 0.00 0.00 20 1021.4
20260906190519 30 352 3.2 12.9 0.00 0.00 0.00 20 1021.5
20260906185520 29 326 4.8 11.3 0.00 0.00 0.00 21 1021.8
20260906185016 28 150 3.2 11.3 0.00 0.00 0.00 21 1021.9
20260906183519 28 346 1.6 11.3 0.00 0.00 0.00 20 1022.1
20260906182520 28 300 1.6 14.5 0.00 0.00 0.00 18 1022.4
20260906182026 28 275 8.0 14.5 0.00 0.00 0.00 21 1022.5
20260906181021 27 352 3.2 12.9 0.00 0.00 0.00 21 1022.6
20260906180521 27 323 4.8 12.9 0.00 0.00 0.00 20 1022.8
20260906175519 26 254 1.6 6.4 0.00 0.00 0.00 24 1023.0
20260906175022 26 100 3.2 11.3 0.00 0.00 0.00 24 1023.1
20260906174537 25 0 0.0 11.3 0.00 0.00 0.00 24 1023.2
20260906174017 25 145 4.8 11.3 0.00 0.00 0.00 28 1023.3
20260906173520 24 52 1.6 8.0 0.00 0.00 0.00 33 1023.4
20260906172019 22 173 3.2 6.4 0.00 0.00 0.00 40 1023.6
20260906171021 22 219 1.6 6.4 0.00 0.00 0.00 42 1023.9
20260906170519 21 164 1.6 6.4 0.00 0.00 0.00 42 1023.9
20260906165525 21 186 1.6 6.4 0.00 0.00 0.00 45 1024.0
20260906165019 20 196 1.6 6.4 0.00 0.00 0.00 46 1024.0
20260906164020 19 179 1.6 6.4 0.00 0.00 0.00 52 1024.2
20260906163517 18 137 1.6 4.8 0.00 0.00 0.00 52 1024.3
20260906163046 17 0 0.0 6.4 0.00 0.00 0.00 51 1024.4
20260906162019 16 150 0.0 4.8 0.00 0.00 0.00 58 1024.6
20260906161022 15 0 0.0 8.0 0.00 0.00 0.00 62 1024.7
20260906160521 14 130 1.6 4.8 0.00 0.00 0.00 66 1024.7
20260906155518 13 137 0.0 3.2 0.00 0.00 0.00 69 1024.8
20260906155018 12 137 1.6 3.2 0.00 0.00 0.00 71 1024.9
20260906153521 11 0 1.6 4.8 0.00 0.00 0.00 74 1024.8
20260906152520 10 0 0.0 3.2 0.00 0.00 0.00 77 1024.8
20260906152023 10 101 0.0 3.2 0.00 0.00 0.00 78 1024.8
20260906151024 9 0 0.0 3.2 0.00 0.00 0.00 83 1025.0
20260906150520 8 0 0.0 4.8 0.00 0.00 0.00 84 1025.0
20260906145518 8 0 0.0 3.2 0.00 0.00 0.00 86 1025.1
20260906145019 8 0 0.0 3.2 0.00 0.00 0.00 87 1025.1
20260906144016 7 0 0.0 1.6 0.00 0.00 0.00 89 1025.0
20260906142523 7 0 0.0 1.6 0.00 0.00 0.00 89 1025.1
20260906142021 6 0 0.0 1.6 0.00 0.00 0.00 89 1025.1
20260906141024 6 0 0.0 1.6 0.00 0.00 0.00 89 1025.2
20260906140521 6 0 0.0 4.8 0.00 0.00 0.00 89 1025.1
20260906135517 6 347 1.6 4.8 0.00 0.00 0.00 88 1025.1
20260906135018 6 0 0.0 0.0 0.00 0.00 0.00 88 1025.0
20260906134535 6 0 0.0 0.0 0.00 0.00 0.00 88 1025.0
20260906134019 6 0 0.0 0.0 0.00 0.00 0.00 88 1024.9
20260906133517 5 0 0.0 0.0 0.00 0.00 0.00 88 1024.9
20260906132520 5 0 0.0 0.0 0.00 0.00 0.00 87 1024.7
20260906132019 5 0 0.0 0.0 0.00 0.00 0.00 87 1024.7
20260906131020 5 0 0.0 0.0 0.00 0.00 0.00 87 1024.5
20260906130519 5 0 0.0 0.0 0.00 0.00 0.00 86 1024.5
20260906125521 5 0 0.0 0.0 0.00 0.00 0.00 86 1024.4
20260906125019 5 0 0.0 4.8 0.00 0.00 0.00 86 1024.5
20260906124018 5 350 0.0 4.8 0.00 0.00 0.00 85 1024.3
20260906123517 5 0 0.0 4.8 0.00 0.00 0.00 85 1024.4
20260906122516 5 279 0.0 3.2 0.00 0.00 0.00 85 1024.5
20260906122023 5 0 0.0 3.2 0.00 0.00 0.00 85 1024.5
20260906120520 5 0 0.0 3.2 0.00 0.00 0.00 84 1024.3
20260906115519 5 352 1.6 4.8 0.00 0.00 0.00 84 1024.3
20260906115017 5 344 0.0 4.8 0.00 0.00 0.00 84 1024.3
20260906114544 6 0 0.0 0.0 0.00 0.00 0.00 84 1024.3
20260906114016 6 0 0.0 0.0 0.00 0.00 0.00 84 1024.3
20260906113546 6 0 0.0 0.0 0.00 0.00 0.00 84 1024.3
20260906112020 6 0 0.0 3.2 0.00 0.00 0.00 83 1024.3
20260906111020 6 0 0.0 4.8 0.00 0.00 0.00 83 1024.3
20260906110522 6 0 0.0 4.8 0.00 0.00 0.00 83 1024.4
20260906105518 6 0 0.0 4.8 0.00 0.00 0.00 83 1024.3
20260906105016 6 0 1.6 6.4 0.00 0.00 0.00 83 1024.2
20260906104020 6 337 3.2 6.4 0.00 0.00 0.00 82 1024.2
20260906103518 6 0 0.0 1.6 0.00 0.00 0.00 82 1024.2
20260906102522 6 0 0.0 3.2 0.00 0.00 0.00 81 1024.2
20260906101023 6 0 0.0 4.8 0.00 0.00 0.00 80 1024.2
20260906100523 6 0 0.0 4.8 0.00 0.00 0.00 80 1024.1
20260906095520 7 0 0.0 1.6 0.00 0.00 0.00 80 1024.1
20260906095018 7 0 0.0 1.6 0.00 0.00 0.00 80 1023.9
20260906094019 7 0 0.0 3.2 0.00 0.00 0.00 80 1023.9
20260906092520 7 0 0.0 3.2 0.00 0.00 0.00 79 1023.9
20260906092017 7 328 0.0 3.2 0.00 0.00 0.00 79 1023.8
20260906091016 7 0 0.0 3.2 0.00 0.00 0.00 78 1023.7
20260906090518 7 331 0.0 3.2 0.00 0.00 0.00 78 1023.6
20260906085518 8 331 3.2 6.4 0.00 0.00 0.00 77 1023.7
20260906085023 8 338 3.2 4.8 0.00 0.00 0.00 77 1023.7
20260906084020 8 0 0.0 3.2 0.00 0.00 0.00 76 1023.6
20260906083521 8 0 0.0 3.2 0.00 0.00 0.00 76 1023.7
20260906082518 8 0 0.0 0.0 0.00 0.00 0.00 75 1023.6
20260906082018 8 0 0.0 1.6 0.00 0.00 0.00 75 1023.6
20260906081017 9 327 0.0 1.6 0.00 0.00 0.00 75 1023.6
20260906080519 9 0 0.0 0.0 0.00 0.00 0.00 75 1023.6
20260906080035 9 0 0.0 1.6 0.00 0.00 0.00 75 1023.6
20260906075518 9 0 0.0 1.6 0.00 0.00 0.00 75 1023.5
20260906075023 9 0 0.0 1.6 0.00 0.00 0.00 76 1023.5
20260906074020 9 0 0.0 1.6 0.00 0.00 0.00 75 1023.5
20260906073519 9 0 0.0 4.8 0.00 0.00 0.00 75 1023.6
20260906072518 9 327 3.2 4.8 0.00 0.00 0.00 75 1023.6
20260906072019 9 342 3.2 4.8 0.00 0.00 0.00 75 1023.6
20260906071020 9 338 1.6 6.4 0.00 0.00 0.00 74 1023.4
20260906070522 9 332 1.6 6.4 0.00 0.00 0.00 74 1023.5
20260906065519 10 345 1.6 4.8 0.00 0.00 0.00 73 1023.5
20260906065020 10 345 3.2 4.8 0.00 0.00 0.00 73 1023.5
20260906064018 10 0 0.0 1.6 0.00 0.00 0.00 72 1023.4
20260906063517 10 0 0.0 1.6 0.00 0.00 0.00 70 1023.4
20260906063036 10 0 0.0 4.8 0.00 0.00 0.00 70 1023.4
20260906062519 10 199 1.6 4.8 0.00 0.00 0.00 70 1023.4
20260906062018 10 0 0.0 3.2 0.00 0.00 0.00 69 1023.4
20260906061021 10 339 0.0 3.2 0.00 0.00 0.00 68 1023.3
20260906060521 10 0 0.0 3.2 0.00 0.00 0.00 67 1023.2
20260906055519 11 0 0.0 3.2 0.00 0.00 0.00 67 1023.2
20260906055022 11 0 0.0 6.4 0.00 0.00 0.00 67 1023.2
20260906054019 11 340 4.8 6.4 0.00 0.00 0.00 65 1023.2
20260906053521 11 321 1.6 4.8 0.00 0.00 0.00 64 1023.2
20260906051021 12 0 0.0 4.8 0.00 0.00 0.00 62 1023.2
20260906050520 12 286 0.0 3.2 0.00 0.00 0.00 62 1023.1
20260906045524 12 331 1.6 4.8 0.00 0.00 0.00 61 1023.0
20260906045022 12 294 1.6 3.2 0.00 0.00 0.00 59 1023.1
20260906044021 13 0 0.0 6.4 0.00 0.00 0.00 58 1023.0
20260906043519 13 314 1.6 6.4 0.00 0.00 0.00 58 1023.0
20260906042520 13 0 0.0 3.2 0.00 0.00 0.00 55 1022.9
20260906042019 13 319 0.0 4.8 0.00 0.00 0.00 55 1022.8
20260906041019 14 319 1.6 4.8 0.00 0.00 0.00 54 1022.8
20260906040518 14 329 1.6 4.8 0.00 0.00 0.00 53 1022.8
20260906035519 15 0 0.0 3.2 0.00 0.00 0.00 53 1022.8
20260906035017 15 277 0.0 3.2 0.00 0.00 0.00 52 1022.7
20260906034019 15 0 1.6 6.4 0.00 0.00 0.00 50 1022.6
20260906033519 16 199 0.0 6.4 0.00 0.00 0.00 49 1022.6
20260906032519 16 230 1.6 6.4 0.00 0.00 0.00 47 1022.6
20260906032022 16 343 3.2 6.4 0.00 0.00 0.00 46 1022.4
20260906031017 17 352 1.6 4.8 0.00 0.00 0.00 45 1022.3
20260906030517 17 0 0.0 3.2 0.00 0.00 0.00 44 1022.3
20260906025521 18 0 1.6 6.4 0.00 0.00 0.00 42 1022.1
20260906024021 19 0 0.0 8.0 0.00 0.00 0.00 39 1021.9
20260906023521 20 5 0.0 8.0 0.00 0.00 0.00 38 1021.8
20260906022519 20 228 1.6 4.8 0.00 0.00 0.00 37 1021.5
20260906022019 20 209 0.0 6.4 0.00 0.00 0.00 37 1021.4
20260906021024 21 143 1.6 4.8 0.00 0.00 0.00 34 1021.3
20260906020517 22 92 0.0 8.0 0.00 0.00 0.00 34 1021.3
20260906015518 22 319 4.8 8.0 0.00 0.00 0.00 32 1021.1
20260906014024 23 349 3.2 4.8 0.00 0.00 0.00 29 1021.0
20260906013520 24 5 1.6 4.8 0.00 0.00 0.00 29 1021.0
20260906012517 25 330 1.6 4.8 0.00 0.00 0.00 28 1021.0
20260906012022 25 0 0.0 9.7 0.00 0.00 0.00 27 1021.0
20260906010519 26 338 4.8 14.5 0.00 0.00 0.00 26 1021.1
20260906005521 27 322 0.0 8.0 0.00 0.00 0.00 25 1021.1
20260906005021 27 302 3.2 8.0 0.00 0.00 0.00 24 1021.1
20260906004024 27 209 0.0 4.8 0.00 0.00 0.00 23 1021.0
20260906003518 27 209 1.6 6.4 0.00 0.00 0.00 23 1021.0
20260906003042 27 238 3.2 6.4 0.00 0.00 0.00 24 1021.0
20260906002517 28 197 1.6 4.8 0.00 0.00 0.00 23 1021.0
20260906002020 28 0 0.0 6.4 0.00 0.00 0.00 22 1021.0
20260906001023 28 209 1.6 11.3 0.00 0.00 0.00 22 1021.0
20260906000519 28 288 0.0 11.3 0.00 0.00 0.00 22 1020.9
20260905235520 29 115 3.2 8.0 0.00 0.00 0.00 21 1020.9
20260905235024 29 0 1.6 8.0 0.00 0.00 0.00 21 1021.0
20260905234018 29 274 1.6 6.4 0.00 0.00 0.00 21 1021.0
20260905233518 29 315 1.6 6.4 0.00 0.00 0.00 22 1021.0
20260905232522 29 282 3.2 8.0 0.00 0.00 0.00 22 1021.0
20260905231021 30 331 3.2 16.1 0.00 0.00 0.00 21 1021.0
20260905230521 30 311 6.4 16.1 0.00 0.00 0.00 22 1021.0
20260905225519 30 273 4.8 16.1 0.00 0.00 0.00 22 1021.0
20260905225019 30 288 11.3 16.1 0.00 0.00 0.00 21 1021.0
20260905224032 29 53 6.4 14.5 0.00 0.00 0.00 22 1021.0
20260905223520 29 341 6.4 12.9 0.00 0.00 0.00 23 1021.1
20260905222518 29 320 4.8 12.9 0.00 0.00 0.00 22 1021.1
20260905222018 29 140 1.6 12.9 0.00 0.00 0.00 21 1021.2